Regional Weather Roundup
Issued by NWS

Home | Current Version | Previous Version | Text Only | Print | Product List | Glossary Off
Versions: 1 2 3 4 5 6 7 8 9 10 11 12 13 14 15 16 17 18 19 20 21 22 23 24 25 26 27 28 29 30 31 32 33 34 35 36 37 38 39 40 41 42 43 44 45 46

000
ASUS45 KBOU 191410
RWRCO

WEATHER ROUNDUP FOR COLORADO
NATIONAL WEATHER SERVICE DENVER/BOULDER CO
800 AM MDT THU APR 19 2018

NOTE: "FAIR" INDICATES FEW OR NO CLOUDS BELOW 12000 FEET WITH NO
SIGNIFICANT WEATHER AND/OR OBSTRUCTIONS TO VISIBILITY.

COZ001>005-013-030-031-191500-
...NORTHWEST COLORADO...

CITY           SKY/WX    TMP DP  RH WIND       PRES   REMARKS
CRAIG          FAIR      41  19  41 E8        30.07F
HAYDEN         FAIR      36  19  50 SE10      30.10F
MEEKER         FAIR      32  21  64 CALM      30.06F
RANGELY        FAIR      35  18  49 SE10      30.03S WCI  27
RABBIT EARS PA FAIR      32   3  29 S7        30.20S WCI  26
STEAMBOAT SPGS FAIR      29  19  66 CALM      30.11F
WALDEN         FAIR      23  10  58 CALM      30.18S
$$

COZ006>008-011-191500-
...WEST CENTRAL VALLEYS...

CITY           SKY/WX    TMP DP  RH WIND       PRES   REMARKS
GRAND JUNCTION FAIR      45  15  30 SE8       30.01S
MONTROSE       FAIR      38  12  34 SW7       30.08R
EAGLE          FAIR      26  18  71 CALM      30.20S
RIFLE          FAIR      36  23  59 CALM      30.07F
DELTA          FAIR      37  10  31 CALM      30.06F
NUCLA          FAIR      37   5  25 E5        30.08F HAZE
$$

COZ017>023-064>068-191500-
...SOUTHWEST COLORADO...

CITY           SKY/WX    TMP DP  RH WIND       PRES   REMARKS
DURANGO        FAIR      35   7  31 SE3       30.19R
CORTEZ         FAIR      53   4  13 SE15G28   30.09R
PAGOSA SPRINGS FAIR      41  13  32 CALM      30.24S
TELLURIDE      FAIR      43   2  18 CALM      30.20F
WOLF CREEK PAS FAIR      27   3  36 S24G32    30.33R WCI  12
$$

COZ009-010-012-014-032>034-037-058>063-191500-
...CENTRAL COLORADO...

CITY           SKY/WX    TMP DP  RH WIND       PRES   REMARKS
ASPEN          FAIR      45   3  17 SE18      30.13R
BUENA VISTA    FAIR      28   3  34 CALM      30.28S
COPPER MTN     NOT AVBL
BERTHOUD PASS  FAIR      27  14  59 SW9       30.29R WCI  17
COTTONWOOD PAS FAIR      32   3  29 E3        30.27S
GUNNISON       FAIR      32  12  43 NE6       30.22S WCI  26
GRANBY         FAIR      25  15  65 CALM      30.21F
KREMMLING      FAIR      30  19  64 CALM      30.21S
LEADVILLE      FAIR      24   5  44 CALM      30.25R
MONARCH PASS   FAIR      28   1  31 S21       30.41R WCI  15
SALIDA         FAIR      31   2  30 N3        30.35S
SUNLIGHT       FAIR      30   5  34 SE7       30.25R WCI  23
WILKERSON PASS FAIR      25   1  36 SW9       30.31S WCI  15
$$

COZ069>075-191500-
...SAN LUIS VALLEY/SANGRE DE CRISTO MOUNTAINS...

CITY           SKY/WX    TMP DP  RH WIND       PRES   REMARKS
ALAMOSA        FAIR      37  12  35 CALM      30.26R
DEL NORTE      FAIR      31   1  28 W9        30.26S WCI  22
LA VETA PASS   FAIR      28   9  43 SW15G23   30.40R WCI  17
SAGUACHE       NOT AVBL
$$

COZ035-036-038>040-191500-
...NORTHERN COLORADO FRONT RANGE...

CITY           SKY/WX    TMP DP  RH WIND       PRES   REMARKS
DENVER INTL AP PTSUNNY   39  18  42 S16       30.26R
AURORA         PTSUNNY   41  17  37 S20G26    30.25S
FRONT RANGE AP MOSUNNY   41  18  38 SE15G23   30.27S
ERIE MUNI ARPT FAIR      33  20  59 CALM      30.33S
BOULDER MUN AP FAIR      36  19  51 NE5       30.27R
CENTENNIAL     FAIR      39  17  41 S20G26    30.25S
BROOMFIELD     PTSUNNY   36  18  48 NW13      30.26S
FORT COLLINS   FAIR      33  18  53 N5        30.30R WCI  29
LONGMONT       FAIR      38  21  50 N8        30.29S
$$

COZ041-046-047-076>085-087-088-191500-
...PIKES PEAK/PALMER DIVIDE AND SOUTHERN FOOTHILLS...

CITY           SKY/WX    TMP DP  RH WIND       PRES   REMARKS
COLO. SPRINGS  FAIR      37  14  38 E5        30.31R
A. F. ACADEMY  FAIR      37  12  36 S8        30.29S
SCHRIEVER AFB  NOT AVBL
CHEYENNE MTN   FAIR      35  13  40 E3        30.25R
ELLICOTT         N/A    N/A N/A N/A SE20      30.28R
FALCON         FAIR      34  13  41 SE6       30.32R WCI  29
FORT CARSON    FAIR      38  13  36 E5        30.29S
LIMON          FAIR      33  22  63 SE8       30.33R WCI  26
MONUMENT HILL  FAIR      32  14  47 S20G26    30.29S WCI  20
CANON CITY     FAIR      39  14  35 SE6       30.29S
WALSENBURG     NOT AVBL
TRINIDAD       FAIR      47  10  22 NE8       30.27R
$$

COZ042>045-048>051-090-091-191500-
...NORTHEAST COLORADO...

CITY           SKY/WX    TMP DP  RH WIND       PRES   REMARKS
GREELEY ARPT   FAIR      33  18  53 E8        30.30S WCI  26
AKRON          FAIR      32  24  72 SE17      30.32S WCI  21
BURLINGTON     FAIR      39  30  70 S13       30.37S
WRAY           FAIR      41  32  70 S8        30.38S
YUMA           FAIR      34  28  80 SE13      30.36S WCI  25
STERLING       NOT AVBL
HOLYOKE        FAIR      41  32  70 S12       30.38S
FORT MORGAN    FAIR      37  19  48 E7        30.32S
$$

COZ086-089-092>099-191500-
...SOUTHEAST COLORADO...

CITY           SKY/WX    TMP DP  RH WIND       PRES   REMARKS
PUEBLO         FAIR      38  15  39 CALM      30.30R
LA JUNTA       FAIR      46  16  30 SE12      30.31R
LAMAR          FAIR      43  23  45 SE12      30.35R
SPRINGFIELD      N/A     41  20  43 S16       30.36R
$$




USA.gov is the U.S. government's official web portal to all federal, state and local government web resources and services.